Flag for China Weather past 2 weeks in Hohhot, Inner Mongolia, China

Now
72 °F

Passing clouds.


Feels Like: 76 °F
Forecast: 59 / 89 °F
Wind: 6 mph from Northeast

Location: Hohhot Airport

Current Time: May 27, 2015 at 12:18:54 AM

Latest Report: May 26, 2015 at 11:00 PM


Visibility: N/A

Pressure: 29.77 "Hg

Humidity: 25%

Dew point: 34 °F

Location of HohhotLocation

Historic Weather in Hohhot — Graph

°F

Hohhot temperature yesterday

Maximum temperature yesterday: 88 °F (at 3:00 PM)
Minimum temperature yesterday: 57 °F (at 4:00 AM)
Average temperature yesterday: 74 °F

Past Weeks' High & Low Weather Summary

 TemperatureHumidityPressure
High90 °F (May 25, 3:00 PM)81% (May 12, 4:00 AM)30.21 "Hg (May 12, 4:00 AM)
Low37 °F (May 12, 4:00 AM)9% (May 26, 4:00 PM)29.50 "Hg (May 12, 5:00 PM)
Average63 °F29%29.86 "Hg
* Reported May 11 11:00 PM — May 26 11:00 PM, Hohhot, Weather by CustomWeather, © 2015

Note: Actual official high and low records may vary slightly from our data, if they occured in-between our weather recording intervals... More about our weather records

Advertising

Hohhot weather history for previous 24 hours

 ConditionsComfort  
Time TempWeatherWind HumidityBarometerVisibility
11:00 PM
Tue, May 26
72 °FPassing clouds.6 mph25%29.77 "HgN/A
10:00 PM70 °FClear.6 mph29%29.77 "Hg10 mi
9:00 PM73 °FClear.6 mph25%29.74 "Hg10 mi
8:00 PM79 °FClear.3 mph21%29.74 "Hg4 mi
7:00 PM82 °FSunny.3 mph16%29.71 "Hg10 mi
6:00 PM86 °FPassing clouds.3 mph13%29.71 "HgN/A
5:00 PM86 °FPassing clouds.3 mph12%29.74 "HgN/A
4:00 PM88 °FPassing clouds.8 mph9%29.74 "HgN/A
3:00 PM88 °FPassing clouds.10 mph13%29.77 "HgN/A
2:00 PM86 °FPassing clouds.10 mph13%29.77 "HgN/A
1:00 PM86 °FPassing clouds.10 mph14%29.80 "HgN/A
12:00 PM84 °FPassing clouds.6 mph20%29.83 "HgN/A
11:00 AM82 °FSunny.1 mph23%29.86 "Hg10 mi
10:00 AM77 °FPassing clouds.3 mph26%29.89 "HgN/A
9:00 AM73 °FPassing clouds.3 mph29%29.89 "HgN/A
8:00 AM72 °FPassing clouds.3 mph31%29.89 "HgN/A
7:00 AM66 °FSunny.3 mph40%29.89 "Hg10 mi
6:00 AM61 °FSunny.6 mph42%29.86 "Hg10 mi
5:00 AM57 °FClear.6 mph48%29.86 "Hg10 mi
4:00 AM57 °FClear.6 mph48%29.83 "Hg10 mi
3:00 AM61 °FClear.3 mph39%29.83 "Hg10 mi
2:00 AM63 °FClear.3 mph37%29.83 "Hg10 mi
1:00 AM63 °FClear.6 mph37%29.83 "Hg10 mi
12:00 AM68 °FClear.3 mph30%29.83 "Hg10 mi
Weather by CustomWeather, © 2015

See weather overviewHow to use our weather pages